Weather History for Modesto, CA

Change the Weather History Date:

Monday, April 14, 2014

  Actual Average Record
Temperature  
Mean Temperature 66 °F -  
Max Temperature 84 °F 74 °F 99 °F (1985)
Min Temperature 48 °F 49 °F 36 °F (1945)
Degree Days  
Heating Degree Days 0 5  
Month to date heating degree days 65 77  
Since 1 July heating degree days 1924 2082  
Cooling Degree Days 1 1  
Month to date cooling degree days 21 10  
Year to date cooling degree days 21 15  
Growing Degree Days 15 (Base 50)    
Moisture  
Dew Point 45 °F    
Average Humidity 60    
Maximum Humidity 100    
Minimum Humidity 20    
Precipitation  
Precipitation 0.00 in 0.04 in 0.53 in (1988)
Month to date precipitation 0.59 0.52  
Year to date precipitation 5.14 7.55  
Since 1 July precipitation 6.63 11.91  
Snow  
Snow 0.00 in - - ()
Month to date snowfall 0.0  
Since 1 July snowfall 0.0  
Snow Depth -    
Sea Level Pressure  
Sea Level Pressure 30.03 in    
Wind  
Wind Speed 4 mph (NNW)    
Max Wind Speed 12 mph    
Max Gust Speed 17 mph    
Visibility 10 miles    
Events      
T = Trace of Precipitation, MM = Missing Value Source: NWS Daily Summary

Daily Weather History Graph

Daily Weather History Graph

Search for Another Location

Airport:

Trip Planner

Search our weather history database for the weather conditions in past years. The results will help you decide how hot, cold, wet, or windy it might be!

Date:

Astronomy

Apr. 14, 2014 Rise Set
Actual Time 6:30 AM PDT 7:38 PM PDT
Civil Twilight 6:03 AM PDT 8:05 PM PDT
Nautical Twilight 5:31 AM PDT 8:37 PM PDT
Astronomical Twilight 4:57 AM PDT 9:11 PM PDT
Moon 7:22 PM PDT (4/14) 6:04 AM PDT (4/14)
Length of Visible Light 14h 02m
Length of Day
13h 08m
Full, 100% of the Moon is Illuminated
Apr 14
Full
Apr 15
Full
Apr 22
Last Quarter
Apr 28
New
May 6
First Quarter

Hourly Weather History & Observations

Time (PDT) Temp. Dew Point Humidity Pressure Visibility Wind Dir Wind Speed Gust Speed Precip Events Conditions
12:53 AM 57.9 °F 50.0 °F 75% 29.99 in 10.0 mi NE 6.9 mph - N/A   Clear
2:53 AM 53.1 °F 50.0 °F 89% 29.99 in 10.0 mi Calm Calm - N/A   Clear
3:53 AM 52.0 °F 48.9 °F 89% 29.99 in 10.0 mi Calm Calm - N/A   Clear
5:53 AM 48.9 °F 48.0 °F 97% 30.01 in 7.0 mi Calm Calm - N/A   Clear
6:53 AM 50.0 °F 46.9 °F 89% 30.04 in 8.0 mi Calm Calm - N/A   Clear
7:53 AM 55.9 °F 51.1 °F 84% 30.06 in 8.0 mi Calm Calm - N/A   Clear
8:53 AM 63.0 °F 48.9 °F 60% 30.07 in 10.0 mi ENE 3.5 mph - N/A   Clear
9:53 AM 68.0 °F 48.9 °F 50% 30.08 in 10.0 mi Variable 3.5 mph - N/A   Clear
11:53 AM 73.9 °F 45.0 °F 35% 30.09 in 10.0 mi Variable 3.5 mph - N/A   Clear
12:53 PM 75.9 °F 42.1 °F 30% 30.07 in 10.0 mi Calm Calm - N/A   Clear
1:53 PM 80.1 °F 42.1 °F 26% 30.05 in 10.0 mi Calm Calm - N/A   Clear
2:53 PM 82.0 °F 37.0 °F 20% 30.04 in 10.0 mi ENE 4.6 mph - N/A   Clear
3:53 PM 82.0 °F 44.1 °F 26% 30.02 in 10.0 mi WNW 9.2 mph - N/A   Clear
4:53 PM 82.0 °F 39.9 °F 22% 30.01 in 10.0 mi West 9.2 mph - N/A   Clear
5:53 PM 82.0 °F 42.1 °F 24% 30.00 in 10.0 mi North 6.9 mph - N/A   Clear
6:53 PM 79.0 °F 39.9 °F 25% 30.00 in 10.0 mi NNW 10.4 mph - N/A   Clear
7:53 PM 73.0 °F 37.9 °F 28% 30.00 in 10.0 mi NNW 5.8 mph - N/A   Clear
8:53 PM 72.0 °F 43.0 °F 35% 30.00 in 10.0 mi North 3.5 mph - N/A   Clear
9:53 PM 66.9 °F 46.0 °F 47% 30.01 in 10.0 mi WNW 3.5 mph - N/A   Clear
10:53 PM 66.0 °F 46.9 °F 50% 30.02 in 10.0 mi NW 4.6 mph - N/A   Clear
11:53 PM 64.0 °F 46.9 °F 54% 30.01 in 10.0 mi NNW 4.6 mph - N/A   Clear